Time,TemperatureF,DewpointF,PressureIn,WindDirection,WindDirectionDegrees,WindSpeedMPH,WindSpeedGustMPH,Humidity,HourlyPrecipIn,Conditions,Clouds,dailyrainin,SoftwareType,DateUTC
2013-02-06 00:01:00,20.0,17.0,29.96,SSE,152,9.0,-999.0,89,-99.99,,,-99.99,,2013-02-06 06:01:00,
2013-02-06 00:11:00,20.0,17.0,29.96,SSE,152,9.0,-999.0,89,-99.99,,,-99.99,,2013-02-06 06:11:00,
2013-02-06 00:21:00,21.0,18.0,29.95,SE,132,11.0,-999.0,88,-99.99,,,-99.99,,2013-02-06 06:21:00,
2013-02-06 00:31:00,21.0,18.0,29.94,SE,131,10.0,-999.0,89,-99.99,,,-99.99,,2013-02-06 06:31:00,
2013-02-06 00:42:00,21.0,18.0,29.94,SE,131,10.0,-999.0,89,-99.99,,,-99.99,,2013-02-06 06:42:00,
2013-02-06 00:52:00,21.0,18.0,29.94,SE,125,11.0,-999.0,89,-99.99,,,-99.99,,2013-02-06 06:52:00,
2013-02-06 01:01:00,21.0,18.0,29.93,ESE,123,11.0,-999.0,89,-99.99,,,-99.99,,2013-02-06 07:01:00,
2013-02-06 01:11:00,21.0,18.0,29.93,ESE,123,11.0,-999.0,89,-99.99,,,-99.99,,2013-02-06 07:11:00,
2013-02-06 01:21:00,21.0,18.0,29.92,ESE,123,12.0,-999.0,88,-99.99,,,-99.99,,2013-02-06 07:21:00,
2013-02-06 01:32:00,21.0,18.0,29.92,ESE,123,11.0,-999.0,88,-99.99,,,-99.99,,2013-02-06 07:32:00,
2013-02-06 01:41:00,21.0,18.0,29.92,ESE,123,11.0,-999.0,88,-99.99,,,-99.99,,2013-02-06 07:41:00,
2013-02-06 01:52:00,21.0,18.0,29.93,ESE,118,10.0,-999.0,89,-99.99,,,-99.99,,2013-02-06 07:52:00,
2013-02-06 02:01:00,21.0,18.0,29.92,ESE,123,11.0,-999.0,89,-99.99,,,-99.99,,2013-02-06 08:01:00,
2013-02-06 02:11:00,21.0,18.0,29.92,ESE,123,11.0,-999.0,89,-99.99,,,-99.99,,2013-02-06 08:11:00,
2013-02-06 02:21:00,21.0,18.0,29.91,ESE,117,11.0,-999.0,89,-99.99,,,-99.99,,2013-02-06 08:21:00,
2013-02-06 02:31:00,21.0,19.0,29.90,ESE,123,12.0,-999.0,90,-99.99,,,-99.99,,2013-02-06 08:31:00,
2013-02-06 02:41:00,21.0,19.0,29.90,ESE,123,12.0,-999.0,90,-99.99,,,-99.99,,2013-02-06 08:41:00,
2013-02-06 02:53:00,21.0,19.0,29.89,ESE,122,12.0,-999.0,90,-99.99,,,-99.99,,2013-02-06 08:53:00,
2013-02-06 03:01:00,21.0,19.0,29.89,SE,132,14.0,-999.0,90,-99.99,,,-99.99,,2013-02-06 09:01:00,
2013-02-06 03:11:00,21.0,19.0,29.89,SE,132,14.0,-999.0,90,-99.99,,,-99.99,,2013-02-06 09:11:00,
2013-02-06 03:21:00,21.0,19.0,29.89,SE,130,14.0,-999.0,90,-99.99,,,-99.99,,2013-02-06 09:21:00,
2013-02-06 03:31:00,20.0,18.0,29.89,ESE,123,11.0,-999.0,90,-99.99,,,-99.99,,2013-02-06 09:31:00,
2013-02-06 03:41:00,20.0,18.0,29.89,ESE,123,11.0,-999.0,90,-99.99,,,-99.99,,2013-02-06 09:41:00,
2013-02-06 03:52:00,21.0,19.0,29.88,SE,126,13.0,-999.0,90,-99.99,,,-99.99,,2013-02-06 09:52:00,
2013-02-06 04:01:00,21.0,19.0,29.87,SE,126,13.0,-999.0,90,-99.99,,,-99.99,,2013-02-06 10:01:00,
2013-02-06 04:11:00,21.0,19.0,29.87,SE,126,13.0,-999.0,90,-99.99,,,-99.99,,2013-02-06 10:11:00,
2013-02-06 04:21:00,20.0,17.0,29.85,SE,130,14.0,-999.0,89,-99.99,,,-99.99,,2013-02-06 10:21:00,
2013-02-06 04:31:00,20.0,18.0,29.84,SE,126,16.0,-999.0,90,-99.99,,,-99.99,,2013-02-06 10:31:00,
2013-02-06 04:42:00,20.0,18.0,29.84,SE,126,16.0,-999.0,90,-99.99,,,-99.99,,2013-02-06 10:42:00,
2013-02-06 04:52:00,20.0,18.0,29.83,SE,124,15.0,-999.0,90,-99.99,,,-99.99,,2013-02-06 10:52:00,
2013-02-06 05:01:00,21.0,18.0,29.84,SE,126,13.0,-999.0,89,-99.99,,,-99.99,,2013-02-06 11:01:00,
2013-02-06 05:11:00,21.0,18.0,29.84,SE,126,13.0,-999.0,89,-99.99,,,-99.99,,2013-02-06 11:11:00,
2013-02-06 05:22:00,21.0,18.0,29.85,ESE,118,13.0,-999.0,88,-99.99,,,-99.99,,2013-02-06 11:22:00,
2013-02-06 05:32:00,21.0,18.0,29.83,SE,125,13.0,-999.0,88,-99.99,,,-99.99,,2013-02-06 11:32:00,
2013-02-06 05:42:00,21.0,18.0,29.83,SE,125,13.0,-999.0,88,-99.99,,,-99.99,,2013-02-06 11:42:00,
2013-02-06 05:53:00,20.0,17.0,29.84,ESE,110,8.0,-999.0,88,-99.99,,,-99.99,,2013-02-06 11:53:00,
2013-02-06 06:01:00,19.0,16.0,29.84,ESE,117,9.0,-999.0,88,-99.99,,,-99.99,,2013-02-06 12:01:00,
2013-02-06 06:12:00,19.0,16.0,29.84,ESE,117,9.0,-999.0,88,-99.99,,,-99.99,,2013-02-06 12:12:00,
2013-02-06 06:22:00,20.0,17.0,29.83,ESE,117,10.0,-999.0,89,-99.99,,,-99.99,,2013-02-06 12:22:00,
2013-02-06 06:32:00,21.0,18.0,29.82,ESE,122,13.0,-999.0,89,-99.99,,,-99.99,,2013-02-06 12:32:00,
2013-02-06 06:42:00,21.0,18.0,29.82,ESE,122,13.0,-999.0,89,-99.99,,,-99.99,,2013-02-06 12:42:00,
2013-02-06 06:52:00,21.0,18.0,29.81,ESE,111,12.0,-999.0,89,-99.99,,,-99.99,,2013-02-06 12:52:00,
2013-02-06 07:01:00,21.0,18.0,29.83,ESE,111,10.0,-999.0,89,-99.99,,,-99.99,,2013-02-06 13:01:00,
2013-02-06 07:11:00,21.0,18.0,29.83,ESE,111,10.0,-999.0,89,-99.99,,,-99.99,,2013-02-06 13:11:00,
2013-02-06 07:22:00,21.0,18.0,29.80,ESE,121,14.0,-999.0,88,-99.99,,,-99.99,,2013-02-06 13:22:00,
2013-02-06 07:31:00,21.0,18.0,29.79,SE,130,16.0,-999.0,89,-99.99,,,-99.99,,2013-02-06 13:31:00,
2013-02-06 07:42:00,21.0,18.0,29.79,SE,130,16.0,-999.0,89,-99.99,,,-99.99,,2013-02-06 13:42:00,
2013-02-06 07:52:00,21.0,18.0,29.80,East,95,15.0,-999.0,89,-99.99,,,-99.99,,2013-02-06 13:52:00,
2013-02-06 08:01:00,21.0,18.0,29.83,ESE,110,7.0,-999.0,88,-99.99,,,-99.99,,2013-02-06 14:01:00,
2013-02-06 08:11:00,21.0,18.0,29.83,ESE,110,7.0,-999.0,88,-99.99,,,-99.99,,2013-02-06 14:11:00,
2013-02-06 08:22:00,21.0,18.0,29.82,ESE,115,11.0,-999.0,89,-99.99,,,-99.99,,2013-02-06 14:22:00,
2013-02-06 08:32:00,21.0,18.0,29.82,ESE,115,11.0,-999.0,89,-99.99,,,-99.99,,2013-02-06 14:32:00,
2013-02-06 08:41:00,21.0,18.0,29.82,ESE,115,11.0,-999.0,89,-99.99,,,-99.99,,2013-02-06 14:41:00,
2013-02-06 08:52:00,21.0,18.0,29.83,ESE,109,9.0,-999.0,89,-99.99,,,-99.99,,2013-02-06 14:52:00,
2013-02-06 09:01:00,22.0,19.0,29.83,East,95,8.0,-999.0,89,-99.99,,,-99.99,,2013-02-06 15:01:00,
2013-02-06 09:11:00,22.0,19.0,29.83,East,95,8.0,-999.0,89,-99.99,,,-99.99,,2013-02-06 15:11:00,
2013-02-06 09:21:00,21.0,18.0,29.83,ESE,108,8.0,-999.0,89,-99.99,,,-99.99,,2013-02-06 15:21:00,
2013-02-06 09:31:00,22.0,19.0,29.82,ESE,109,9.0,-999.0,89,-99.99,,,-99.99,,2013-02-06 15:31:00,
2013-02-06 09:41:00,22.0,19.0,29.82,ESE,109,9.0,-999.0,89,-99.99,,,-99.99,,2013-02-06 15:41:00,
2013-02-06 09:52:00,22.0,19.0,29.84,ESE,111,7.0,-999.0,89,-99.99,,,-99.99,,2013-02-06 15:52:00,
2013-02-06 10:01:00,21.0,18.0,29.84,East,88,7.0,-999.0,89,-99.99,,,-99.99,,2013-02-06 16:01:00,
2013-02-06 10:11:00,21.0,18.0,29.84,East,88,7.0,-999.0,89,-99.99,,,-99.99,,2013-02-06 16:11:00,
2013-02-06 10:21:00,21.0,18.0,29.84,East,92,7.0,-999.0,89,-99.99,,,-99.99,,2013-02-06 16:21:00,
2013-02-06 10:32:00,21.0,18.0,29.85,East,92,6.0,-999.0,89,-99.99,,,-99.99,,2013-02-06 16:32:00,
2013-02-06 10:42:00,21.0,18.0,29.85,East,92,6.0,-999.0,89,-99.99,,,-99.99,,2013-02-06 16:42:00,
2013-02-06 10:52:00,21.0,18.0,29.85,East,92,6.0,-999.0,89,-99.99,,,-99.99,,2013-02-06 16:52:00,
2013-02-06 11:02:00,22.0,19.0,29.86,East,85,5.0,-999.0,89,-99.99,,,-99.99,,2013-02-06 17:02:00,
2013-02-06 11:11:00,22.0,19.0,29.86,East,85,5.0,-999.0,89,-99.99,,,-99.99,,2013-02-06 17:11:00,
2013-02-06 11:21:00,22.0,19.0,29.86,East,90,6.0,-999.0,89,-99.99,,,-99.99,,2013-02-06 17:21:00,
2013-02-06 11:32:00,23.0,21.0,29.87,East,87,7.0,-999.0,90,-99.99,,,-99.99,,2013-02-06 17:32:00,
2013-02-06 11:41:00,23.0,20.0,29.87,ENE,74,7.0,-999.0,89,-99.99,,,-99.99,,2013-02-06 17:41:00,
2013-02-06 11:52:00,23.0,20.0,29.87,ENE,74,7.0,-999.0,89,-99.99,,,-99.99,,2013-02-06 17:52:00,
2013-02-06 12:01:00,23.0,21.0,29.88,East,89,8.0,-999.0,90,-99.99,,,-99.99,,2013-02-06 18:01:00,
2013-02-06 12:11:00,23.0,21.0,29.88,East,90,7.0,-999.0,90,-99.99,,,-99.99,,2013-02-06 18:11:00,
2013-02-06 12:23:00,23.0,21.0,29.88,East,90,7.0,-999.0,90,-99.99,,,-99.99,,2013-02-06 18:23:00,
2013-02-06 12:32:00,23.0,21.0,29.88,East,84,9.0,-999.0,90,-99.99,,,-99.99,,2013-02-06 18:32:00,
2013-02-06 12:42:00,23.0,21.0,29.88,East,84,9.0,-999.0,90,-99.99,,,-99.99,,2013-02-06 18:42:00,
2013-02-06 12:52:00,23.0,21.0,29.89,East,82,7.0,-999.0,90,-99.99,,,-99.99,,2013-02-06 18:52:00,
2013-02-06 13:01:00,23.0,21.0,29.89,East,80,7.0,-999.0,90,-99.99,,,-99.99,,2013-02-06 19:01:00,
2013-02-06 13:11:00,23.0,21.0,29.89,East,80,7.0,-999.0,90,-99.99,,,-99.99,,2013-02-06 19:11:00,
2013-02-06 13:21:00,23.0,21.0,29.89,East,80,7.0,-999.0,90,-99.99,,,-99.99,,2013-02-06 19:21:00,
2013-02-06 13:31:00,24.0,22.0,29.90,East,80,7.0,-999.0,90,-99.99,,,-99.99,,2013-02-06 19:31:00,
2013-02-06 13:41:00,24.0,22.0,29.90,East,80,7.0,-999.0,90,-99.99,,,-99.99,,2013-02-06 19:41:00,
2013-02-06 13:52:00,23.0,21.0,29.91,East,88,8.0,-999.0,90,-99.99,,,-99.99,,2013-02-06 19:52:00,
2013-02-06 14:01:00,23.0,21.0,29.91,ENE,78,9.0,-999.0,90,-99.99,,,-99.99,,2013-02-06 20:01:00,
2013-02-06 14:11:00,24.0,21.0,29.93,East,84,8.0,-999.0,89,-99.99,,,-99.99,,2013-02-06 20:11:00,
2013-02-06 14:21:00,24.0,21.0,29.93,East,84,8.0,-999.0,89,-99.99,,,-99.99,,2013-02-06 20:21:00,
2013-02-06 14:31:00,24.0,21.0,29.93,East,86,8.0,-999.0,89,-99.99,,,-99.99,,2013-02-06 20:31:00,
2013-02-06 14:41:00,24.0,21.0,29.93,East,86,8.0,-999.0,89,-99.99,,,-99.99,,2013-02-06 20:41:00,
2013-02-06 14:52:00,24.0,21.0,29.94,East,81,6.0,-999.0,89,-99.99,,,-99.99,,2013-02-06 20:52:00,
2013-02-06 15:01:00,23.0,20.0,29.94,ENE,61,8.0,-999.0,89,-99.99,,,-99.99,,2013-02-06 21:01:00,
2013-02-06 15:11:00,23.0,20.0,29.94,ENE,61,8.0,-999.0,89,-99.99,,,-99.99,,2013-02-06 21:11:00,
2013-02-06 15:21:00,23.0,20.0,29.95,ENE,74,7.0,-999.0,89,-99.99,,,-99.99,,2013-02-06 21:21:00,
2013-02-06 15:32:00,23.0,21.0,29.96,ENE,76,8.0,-999.0,90,-99.99,,,-99.99,,2013-02-06 21:32:00,
2013-02-06 15:41:00,23.0,21.0,29.96,ENE,76,8.0,-999.0,90,-99.99,,,-99.99,,2013-02-06 21:41:00,
2013-02-06 15:52:00,23.0,21.0,29.97,East,83,7.0,-999.0,90,-99.99,,,-99.99,,2013-02-06 21:52:00,
2013-02-06 16:01:00,23.0,21.0,29.98,East,82,7.0,-999.0,91,-99.99,,,-99.99,,2013-02-06 22:01:00,
2013-02-06 16:11:00,23.0,21.0,29.98,East,82,7.0,-999.0,91,-99.99,,,-99.99,,2013-02-06 22:11:00,
2013-02-06 16:21:00,23.0,21.0,29.99,East,82,7.0,-999.0,91,-99.99,,,-99.99,,2013-02-06 22:21:00,
2013-02-06 16:31:00,23.0,21.0,30.00,East,86,7.0,-999.0,91,-99.99,,,-99.99,,2013-02-06 22:31:00,
2013-02-06 16:41:00,23.0,21.0,30.00,East,86,7.0,-999.0,91,-99.99,,,-99.99,,2013-02-06 22:41:00,
2013-02-06 16:52:00,22.0,20.0,30.01,East,84,8.0,-999.0,91,-99.99,,,-99.99,,2013-02-06 22:52:00,
2013-02-06 17:01:00,22.0,20.0,30.01,East,86,9.0,-999.0,91,-99.99,,,-99.99,,2013-02-06 23:01:00,
2013-02-06 17:11:00,22.0,20.0,30.01,East,86,9.0,-999.0,91,-99.99,,,-99.99,,2013-02-06 23:11:00,
2013-02-06 17:21:00,21.0,19.0,30.01,ENE,77,8.0,-999.0,91,-99.99,,,-99.99,,2013-02-06 23:21:00,
2013-02-06 17:31:00,21.0,19.0,30.03,East,88,9.0,-999.0,90,-99.99,,,-99.99,,2013-02-06 23:31:00,
2013-02-06 17:42:00,21.0,19.0,30.03,East,88,9.0,-999.0,90,-99.99,,,-99.99,,2013-02-06 23:42:00,
2013-02-06 17:52:00,20.0,18.0,30.03,East,94,8.0,-999.0,90,-99.99,,,-99.99,,2013-02-06 23:52:00,
2013-02-06 18:01:00,20.0,18.0,30.05,East,88,7.0,-999.0,91,-99.99,,,-99.99,,2013-02-07 00:01:00,
2013-02-06 18:11:00,20.0,18.0,30.05,East,88,7.0,-999.0,91,-99.99,,,-99.99,,2013-02-07 00:11:00,
2013-02-06 18:21:00,20.0,18.0,30.06,East,91,9.0,-999.0,90,-99.99,,,-99.99,,2013-02-07 00:21:00,
2013-02-06 18:31:00,19.0,17.0,30.06,ENE,63,7.0,-999.0,90,-99.99,,,-99.99,,2013-02-07 00:31:00,
2013-02-06 18:41:00,19.0,17.0,30.06,ENE,63,7.0,-999.0,90,-99.99,,,-99.99,,2013-02-07 00:41:00,
2013-02-06 18:52:00,18.0,16.0,30.07,East,90,10.0,-999.0,90,-99.99,,,-99.99,,2013-02-07 00:52:00,
2013-02-06 19:01:00,18.0,16.0,30.09,East,88,10.0,-999.0,90,-99.99,,,-99.99,,2013-02-07 01:01:00,
2013-02-06 19:11:00,18.0,16.0,30.09,East,88,10.0,-999.0,90,-99.99,,,-99.99,,2013-02-07 01:11:00,
2013-02-06 19:21:00,18.0,16.0,30.09,East,96,7.0,-999.0,90,-99.99,,,-99.99,,2013-02-07 01:21:00,
2013-02-06 19:31:00,17.0,15.0,30.11,ENE,69,7.0,-999.0,90,-99.99,,,-99.99,,2013-02-07 01:31:00,
2013-02-06 19:41:00,17.0,15.0,30.11,ENE,69,7.0,-999.0,90,-99.99,,,-99.99,,2013-02-07 01:41:00,
2013-02-06 19:52:00,16.0,14.0,30.12,ESE,112,8.0,-999.0,90,-99.99,,,-99.99,,2013-02-07 01:52:00,
2013-02-06 20:01:00,16.0,14.0,30.13,ESE,111,4.0,-999.0,90,-99.99,,,-99.99,,2013-02-07 02:01:00,
2013-02-06 20:11:00,16.0,14.0,30.13,ESE,111,4.0,-999.0,90,-99.99,,,-99.99,,2013-02-07 02:11:00,
2013-02-06 20:21:00,16.0,13.0,30.14,ESE,109,5.0,-999.0,89,-99.99,,,-99.99,,2013-02-07 02:21:00,
2013-02-06 20:31:00,15.0,12.0,30.14,ESE,109,6.0,-999.0,89,-99.99,,,-99.99,,2013-02-07 02:31:00,
2013-02-06 20:41:00,15.0,12.0,30.14,ESE,109,6.0,-999.0,89,-99.99,,,-99.99,,2013-02-07 02:41:00,
2013-02-06 20:52:00,15.0,12.0,30.14,ESE,109,6.0,-999.0,89,-99.99,,,-99.99,,2013-02-07 02:52:00,
2013-02-06 21:02:00,15.0,13.0,30.16,East,90,4.0,-999.0,90,-99.99,,,-99.99,,2013-02-07 03:02:00,
2013-02-06 21:11:00,15.0,13.0,30.16,East,90,4.0,-999.0,90,-99.99,,,-99.99,,2013-02-07 03:11:00,
2013-02-06 21:21:00,15.0,12.0,30.16,East,96,5.0,-999.0,89,-99.99,,,-99.99,,2013-02-07 03:21:00,
2013-02-06 21:31:00,14.0,11.0,30.16,ESE,107,5.0,-999.0,89,-99.99,,,-99.99,,2013-02-07 03:31:00,
2013-02-06 21:41:00,14.0,11.0,30.16,ESE,107,5.0,-999.0,89,-99.99,,,-99.99,,2013-02-07 03:41:00,
2013-02-06 21:52:00,14.0,11.0,30.16,ESE,103,4.0,-999.0,89,-99.99,,,-99.99,,2013-02-07 03:52:00,
2013-02-06 22:01:00,14.0,11.0,30.16,ESE,105,6.0,-999.0,89,-99.99,,,-99.99,,2013-02-07 04:01:00,
2013-02-06 22:11:00,14.0,11.0,30.16,ESE,105,6.0,-999.0,89,-99.99,,,-99.99,,2013-02-07 04:11:00,
2013-02-06 22:22:00,14.0,11.0,30.16,East,95,7.0,-999.0,89,-99.99,,,-99.99,,2013-02-07 04:22:00,
2013-02-06 22:31:00,13.0,10.0,30.17,ESE,106,5.0,-999.0,89,-99.99,,,-99.99,,2013-02-07 04:31:00,
2013-02-06 22:41:00,13.0,10.0,30.17,ESE,106,5.0,-999.0,89,-99.99,,,-99.99,,2013-02-07 04:41:00,
2013-02-06 22:53:00,13.0,10.0,30.17,ESE,106,5.0,-999.0,89,-99.99,,,-99.99,,2013-02-07 04:53:00,
2013-02-06 23:02:00,13.0,10.0,30.18,ESE,111,6.0,-999.0,89,-99.99,,,-99.99,,2013-02-07 05:02:00,
2013-02-06 23:11:00,13.0,10.0,30.18,ESE,111,6.0,-999.0,89,-99.99,,,-99.99,,2013-02-07 05:11:00,
2013-02-06 23:21:00,13.0,10.0,30.18,ESE,111,6.0,-999.0,89,-99.99,,,-99.99,,2013-02-07 05:21:00,
2013-02-06 23:32:00,13.0,11.0,30.19,ESE,119,9.0,-999.0,90,-99.99,,,-99.99,,2013-02-07 05:32:00,
2013-02-06 23:42:00,13.0,11.0,30.19,ESE,119,9.0,-999.0,90,-99.99,,,-99.99,,2013-02-07 05:42:00,
2013-02-06 23:52:00,12.0,9.0,30.19,East,87,7.0,-999.0,89,-99.99,,,-99.99,,2013-02-07 05:52:00,